Flag for U.S.A. Weather past 2 weeks in Freehold, New Jersey, U.S.A.

Now
72 °F

Sunny.


Feels Like: 77 °F
Forecast: 48 / 81 °F
Wind: 14 mph from West

Location: Belmar-Farmdale

Current Time: May 24, 2015 at 11:32:54 AM

Latest Report: May 24, 2015 at 10:55 AM


Visibility: 10 mi

Pressure: 30.36 "Hg

Humidity: 47%

Dew point: 50 °F

Location of FreeholdLocation

Historic Weather in Freehold — Graph

°F

Freehold temperature yesterday

Maximum temperature yesterday: 64 °F (at 1:55 PM)
Minimum temperature yesterday: 46 °F (at 5:15 AM)
Average temperature yesterday: 56 °F

Past Weeks' High & Low Weather Summary

 TemperatureHumidityPressure
High86 °F (May 12, 2:15 PM)88% (May 9, 12:35 PM)30.43 "Hg (May 9, 12:35 PM)
Low45 °F (May 14, 5:15 AM)24% (May 23, 1:55 PM)29.78 "Hg (May 19, 10:55 PM)
Average63 °F62%30.12 "Hg
* Reported May 9 10:15 AM — May 24 10:35 AM, Freehold, Weather by CustomWeather, © 2015

Note: Actual official high and low records may vary slightly from our data, if they occured in-between our weather recording intervals... More about our weather records

Advertising

Freehold weather history for previous 24 hours

 ConditionsComfort  
Time TempWeatherWind HumidityBarometerVisibility
10:35 AM
Sun, May 24
72 °FSunny.14 mph47%30.37 "Hg10 mi
10:15 AM70 °FSunny.13 mph46%30.38 "Hg10 mi
9:55 AM68 °FSunny.13 mph49%30.38 "Hg10 mi
9:35 AM66 °FSunny.13 mph52%30.38 "Hg10 mi
9:15 AM64 °FSunny.10 mph56%30.39 "Hg10 mi
8:55 AM63 °FSunny.9 mph59%30.40 "Hg10 mi
8:35 AM61 °FSunny.10 mph63%30.40 "Hg10 mi
8:15 AM59 °FSunny.9 mph63%30.39 "Hg10 mi
7:55 AM57 °FSunny.7 mph67%30.39 "Hg10 mi
7:35 AM55 °FSunny.6 mph72%30.38 "Hg10 mi
7:15 AM54 °FSunny.6 mph77%30.38 "Hg10 mi
6:55 AM52 °FSunny.6 mph77%30.39 "Hg10 mi
6:35 AM52 °FSunny.6 mph72%30.39 "Hg10 mi
6:15 AM50 °FClear.7 mph76%30.38 "Hg10 mi
5:55 AM50 °FClear.6 mph76%30.37 "Hg10 mi
5:35 AM50 °FClear.6 mph76%30.37 "Hg10 mi
5:15 AM50 °FClear.6 mph76%30.37 "Hg10 mi
4:55 AM50 °FClear.5 mph76%30.37 "Hg10 mi
4:35 AM48 °FClear.5 mph82%30.37 "Hg10 mi
4:15 AM48 °FClear.6 mph76%30.37 "Hg10 mi
3:55 AM48 °FClear.5 mph76%30.37 "Hg10 mi
3:35 AM48 °FClear.5 mph76%30.37 "Hg10 mi
3:15 AM48 °FClear.5 mph76%30.37 "Hg10 mi
2:55 AM48 °FClear.6 mph76%30.38 "Hg10 mi
2:35 AM48 °FClear.6 mph76%30.38 "Hg10 mi
2:15 AM48 °FClear.5 mph76%30.38 "Hg10 mi
1:55 AM48 °FClear.6 mph71%30.37 "Hg10 mi
1:35 AM50 °FClear.6 mph67%30.37 "Hg10 mi
1:15 AM50 °FClear.6 mph67%30.37 "Hg10 mi
12:55 AM52 °FClear.7 mph62%30.37 "Hg10 mi
12:35 AM52 °FClear.8 mph62%30.38 "Hg10 mi
12:15 AM52 °FClear.8 mph67%30.38 "Hg10 mi
11:55 PM
Sat, May 23
52 °FClear.7 mph67%30.38 "Hg10 mi
11:35 PM52 °FClear.6 mph67%30.38 "Hg10 mi
11:15 PM52 °FClear.5 mph72%30.38 "Hg10 mi
10:55 PM54 °FClear.5 mph67%30.38 "Hg10 mi
10:35 PM54 °FClear.5 mph67%30.38 "Hg10 mi
10:15 PM54 °FClear.3 mph67%30.38 "Hg10 mi
9:55 PM54 °FClear.3 mph67%30.37 "Hg10 mi
9:35 PM54 °FClear.3 mph67%30.37 "Hg10 mi
9:15 PM55 °FClear.3 mph63%30.36 "Hg10 mi
8:55 PM55 °FSunny.3 mph63%30.36 "Hg10 mi
8:35 PM55 °FSunny.3 mph63%30.36 "Hg10 mi
8:15 PM55 °FSunny.6 mph59%30.36 "Hg10 mi
7:55 PM57 °FSunny.8 mph55%30.36 "Hg10 mi
7:35 PM57 °FSunny.8 mph55%30.37 "Hg10 mi
7:15 PM59 °FSunny.7 mph51%30.37 "Hg10 mi
6:55 PM61 °FSunny.10 mph48%30.36 "Hg10 mi
6:35 PM61 °FSunny.9 mph45%30.36 "Hg10 mi
6:15 PM61 °FSunny.8 mph45%30.37 "Hg10 mi
5:55 PM61 °FSunny.8 mph45%30.37 "Hg10 mi
5:35 PM61 °FSunny.7 mph42%30.37 "Hg10 mi
5:15 PM61 °FSunny.9 mph42%30.37 "Hg10 mi
4:55 PM63 °FSunny.8 mph39%30.37 "Hg10 mi
4:35 PM63 °FSunny.12 mph39%30.37 "Hg10 mi
4:15 PM61 °FSunny.12 mph42%30.38 "Hg10 mi
3:55 PM61 °FSunny.9 mph39%30.39 "Hg10 mi
3:35 PM63 °FSunny.10 mph39%30.39 "Hg10 mi
3:15 PM64 °FSunny.8 mph24%30.39 "Hg10 mi
2:55 PM64 °FSunny.8 mph26%30.40 "Hg10 mi
2:35 PM64 °FSunny.8 mph26%30.40 "Hg10 mi
2:15 PM64 °FSunny.5 mph26%30.40 "Hg10 mi
1:55 PM64 °FSunny.6 mph24%30.41 "Hg10 mi
1:35 PM63 °FSunny.6 mph25%30.41 "Hg10 mi
1:15 PM63 °FSunny.13 mph25%30.42 "Hg10 mi
12:55 PM61 °FSunny.8 mph27%30.42 "Hg10 mi
12:35 PM61 °FSunny.7 mph27%30.42 "Hg10 mi
12:15 PM61 °FSunny.5 mph29%30.42 "Hg10 mi
11:55 AM61 °FSunny.9 mph29%30.43 "Hg10 mi
11:35 AM59 °FSunny.13 mph34%30.43 "Hg10 mi
11:15 AM57 °FSunny.7 mph33%30.43 "Hg10 mi
Weather by CustomWeather, © 2015

See weather overviewHow to use our weather pages